Location: *
(60.1759°S, 155.0663°W)
Time: 10:55:10
(UTC+00:00)

CZ-4C R/B - Pass Details

Date: 17 September 2019
Orbit: 465 x 636 km, 97.9° (Epoch: 13 October)

Event Time Altitude Azimuth Distance (km) Brightness Sun altitude
Rises 12:10:02 0° 163° (SSE) 2,925 8.2 -28.0°
Reaches altitude 10° 12:12:19 10° 159° (SSE) 1,991 7.1 -27.9°
Enters shadow 12:15:45 49° 128° (SE) 776 4.3 -27.6°
